Wind_Speed
82 86 90 96 97 96 94 96 96 94 91 87 83 79 78 73 72 68 57 47 38 32 34 37 39 48 61 78 85 87 88 90 95 100 106 113 121 127 129 126 123 116 113 113 113 104 96
84 88 92 97 102 101 98 98 98 96 90 87 83 82 80 76 75 70 58 48 37 30 29 32 36 42 57 75 84 87 88 92 93 98 104 110 116 125 132 131 126 120 119 116 115 103 102
88 90 94 98 104 105 101 101 101 99 94 87 85 83 83 80 78 73 58 49 38 32 25 26 30 38 48 67 80 86 89 92 94 99 103 108 114 122 130 133 129 127 124 119 111 106 107
89 92 94 100 103 107 106 102 106 103 98 91 86 85 85 82 81 76 62 52 44 34 23 21 25 35 47 59 77 89 90 91 93 98 102 106 113 119 127 132 132 129 128 122 114 110 108
90 91 96 99 103 106 108 107 106 103 100 94 88 85 84 82 80 75 64 56 46 33 21 16 21 31 42 55 71 83 90 89 91 96 100 103 107 114 122 129 134 132 129 123 119 113 112
91 92 98 98 102 106 110 108 106 104 101 96 91 87 85 82 81 77 67 58 46 30 14 8 14 26 40 52 61 78 87 92 91 94 95 99 103 109 115 123 130 131 129 125 121 118 115
90 93 100 99 103 106 108 108 106 103 100 97 93 89 87 83 82 79 70 60 46 27 17 6 8 20 30 42 54 73 82 89 91 92 90 94 97 99 107 114 123 134 134 129 126 120 119
90 93 99 100 101 105 107 108 106 102 100 96 94 91 89 86 83 80 72 60 41 27 24 14 6 16 27 37 48 63 71 82 89 89 87 84 89 95 100 110 117 127 132 129 128 119 118
88 91 97 98 106 104 106 107 105 100 98 96 95 92 90 85 81 81 75 66 46 31 26 18 8 7 21 35 45 56 61 70 82 84 82 80 83 87 91 100 108 113 126 131 127 121 120
88 92 94 94 100 102 103 105 104 101 97 97 95 92 89 87 81 79 75 67 49 36 27 20 13 11 17 27 34 39 49 60 70 79 79 76 76 75 81 87 100 103 114 126 125 124 124
89 90 93 91 98 99 101 101 101 99 97 95 94 92 89 86 80 74 70 64 50 38 26 22 17 12 16 25 33 38 50 58 62 69 72 72 72 70 72 80 89 96 103 113 121 128 125
88 87 92 86 97 94 97 99 97 96 94 93 92 91 87 84 80 74 70 64 55 42 30 27 22 15 9 18 30 40 46 50 52 57 62 66 67 66 66 73 78 82 94 106 114 124 125
86 86 90 90 93 100 93 94 93 92 91 90 89 88 84 82 79 72 68 64 57 42 33 26 21 18 10 8 20 30 38 43 48 50 53 56 58 60 63 64 69 74 83 95 108 114 122
84 85 89 93 91 98 96 91 92 90 88 86 86 84 81 77 73 70 65 61 55 43 33 26 23 19 16 11 7 10 21 29 33 37 41 45 48 51 53 56 63 69 77 86 93 103 108
82 83 85 92 89 94 95 94 90 88 87 85 82 80 78 73 70 64 59 56 51 44 35 27 21 19 17 14 13 8 4 4 9 20 24 31 36 41 46 50 56 62 66 73 82 91 98
81 83 84 85 89 93 98 97 93 89 87 85 81 77 73 71 65 61 55 51 49 44 35 26 20 16 13 12 9 8 6 6 8 10 13 19 25 33 38 44 48 56 62 65 70 79 88
81 82 83 84 86 94 96 99 94 89 84 82 79 75 70 67 63 57 51 47 43 39 36 28 20 15 12 8 5 5 7 8 10 10 13 15 20 25 30 36 44 48 54 59 65 70 80
81 82 84 84 87 88 100 98 94 92 91 82 77 74 68 62 60 54 49 42 39 36 34 31 23 15 9 6 3 0 3 7 9 13 15 16 18 22 26 32 38 44 49 55 59 65 73
81 84 86 86 84 87 96 102 96 91 90 81 78 74 68 60 57 52 47 42 35 31 27 23 22 18 13 7 3 2 4 5 6 8 13 16 18 21 25 27 34 40 47 53 56 62 67
82 83 86 85 81 90 94 106 107 100 88 81 76 72 68 60 55 49 44 40 36 32 28 24 18 15 13 10 5 2 1 4 7 9 12 14 16 20 24 29 31 34 41 47 51 56 63
83 84 85 83 81 88 98 100 105 97 88 79 75 71 66 59 54 47 43 38 35 31 27 23 20 17 12 10 9 8 7 6 5 7 11 13 15 19 23 27 33 38 41 44 51 57 60
84 85 85 83 84 90 93 105 102 97 88 76 75 68 64 60 52 47 42 37 33 30 28 26 21 18 17 16 12 12 12 10 12 12 11 11 12 15 18 24 30 35 40 45 49 55 59
87 89 87 88 84 90 98 105 96 97 88 77 75 67 62 60 52 46 41 38 32 29 26 25 23 19 18 18 17 16 16 15 14 16 18 18 17 16 19 20 22 31 38 43 47 51 53
89 89 87 90 86 88 95 103 96 97 86 80 73 68 61 58 51 44 39 37 34 30 26 23 23 21 18 18 18 18 19 18 18 17 19 20 21 22 22 21 24 28 28 35 41 47 51
91 91 90 90 87 93 96 99 97 91 83 79 72 69 61 55 50 45 39 34 32 32 29 25 23 23 19 18 18 18 20 20 18 19 20 20 21 22 25 26 25 24 26 29 32 41 48
91 95 93 90 90 94 95 98 90 92 81 75 73 66 61 53 48 46 41 34 32 31 27 25 23 24 23 20 19 19 19 19 19 18 20 21 21 19 20 26 29 28 26 27 29 33 38
96 95 96 89 91 94 92 94 92 91 79 72 73 66 59 52 48 44 42 38 35 33 30 25 22 22 23 21 21 20 20 20 20 18 19 23 24 21 19 22 28 29 29 28 29 31 34
100 98 99 93 92 93 93 94 90 83 77 74 68 66 59 53 47 43 40 39 37 35 36 29 25 22 23 22 22 22 22 21 21 20 19 22 25 24 22 21 21 28 30 32 33 32 32
101 99 99 94 98 97 94 93 85 84 80 71 68 67 56 51 47 41 38 37 36 36 38 33 28 24 26 25 24 23 23 23 23 24 23 23 26 29 27 25 21 21 26 33 35 36 35
Wind_Direction
343 345 343 340 338 339 345 346 342 344 346 345 345 343 343 342 342 338 334 327 316 296 278 260 242 229 217 214 214 215 214 212 211 210 209 209 209 210 211 215 215 213 216 216 217 217 220
344 344 343 340 338 339 343 346 344 346 349 349 348 347 346 347 346 344 340 335 325 308 280 257 240 225 217 211 214 213 214 212 209 210 210 209 210 209 209 213 216 214 215 215 217 216 220
343 342 342 341 339 339 343 347 345 347 351 352 351 350 350 351 351 350 347 343 337 324 295 260 239 224 213 210 212 210 213 213 210 209 210 209 209 210 210 210 214 216 215 215 215 216 221
343 344 341 341 340 339 342 348 348 349 352 354 354 355 354 355 355 354 354 351 345 332 307 268 234 215 211 205 208 207 211 213 210 210 210 210 209 211 210 210 212 216 217 215 214 216 221
343 345 344 342 341 340 342 348 349 349 352 354 356 357 357 358 358 359 0 356 347 335 313 272 235 213 203 204 206 206 210 212 212 212 211 211 211 211 211 211 211 215 218 217 216 215 220
343 343 347 343 341 341 342 348 350 348 352 354 356 358 359 1 2 3 5 0 353 342 330 275 225 209 203 204 203 205 207 210 213 214 212 212 212 212 212 212 212 213 217 218 218 216 219
342 344 346 343 342 343 343 347 351 349 352 354 356 358 1 3 4 5 9 3 356 7 17 22 186 186 193 201 202 204 205 209 212 215 214 213 214 214 213 213 212 213 216 220 218 218 219
342 345 345 345 344 344 344 347 351 350 351 355 356 358 2 3 6 7 12 6 2 22 33 50 126 176 184 192 199 204 206 208 210 215 217 215 215 214 214 214 215 215 215 218 221 219 222
341 344 345 347 347 346 345 347 350 350 352 355 355 359 1 4 6 8 12 8 10 25 38 45 82 154 188 188 193 204 204 204 212 215 218 216 217 217 217 216 218 216 216 218 221 221 224
340 341 344 346 349 347 345 346 348 351 353 354 355 357 0 3 6 9 12 10 12 27 38 48 70 127 163 186 196 195 196 203 211 216 220 219 220 219 218 218 220 218 218 220 220 222 224
340 342 344 349 349 349 346 346 348 350 353 354 354 355 358 2 4 9 12 12 15 28 34 47 60 103 156 171 176 182 195 203 209 212 218 221 222 221 220 220 221 220 220 220 221 222 225
339 342 345 348 354 351 346 346 349 351 352 353 353 353 356 359 1 6 10 15 18 26 31 47 54 61 121 169 182 185 192 202 208 213 217 220 221 222 221 222 222 220 221 221 221 222 223
339 343 345 347 352 356 354 348 349 350 351 353 351 352 354 357 359 2 7 13 19 24 27 41 57 60 68 157 186 194 198 205 210 213 215 218 221 220 221 221 221 220 221 222 222 222 223
339 342 346 348 350 353 354 348 349 349 350 351 351 350 352 355 358 359 3 8 16 18 25 31 49 60 78 83 90 206 212 212 216 220 219 221 223 224 222 221 221 219 221 222 222 223 223
336 341 346 350 354 356 356 352 349 349 350 350 350 349 350 352 354 357 1 2 10 14 21 26 35 60 63 76 90 94 103 135 239 229 222 223 225 225 226 223 221 221 222 223 223 224 224
334 340 347 351 352 354 357 355 349 347 348 348 349 347 348 349 351 352 357 359 3 8 15 21 29 38 66 77 87 108 132 160 173 183 212 211 217 220 225 224 223 221 222 223 224 225 224
332 337 343 348 354 356 355 354 349 346 345 345 347 346 345 346 347 349 352 355 358 359 6 18 26 28 30 50 97 156 191 186 184 201 208 207 211 213 214 215 217 218 221 222 222 223 224
331 336 342 344 350 356 356 353 351 347 344 343 343 344 342 342 343 345 347 350 353 355 357 3 11 25 34 22 56 247 213 208 210 194 201 206 208 212 212 214 215 216 218 220 222 222 223
326 334 339 342 347 356 355 355 349 347 345 343 340 341 341 340 339 341 342 342 347 350 352 350 354 2 11 34 8 311 273 250 252 234 214 210 209 210 207 212 213 215 217 218 218 221 223
323 330 335 339 347 353 354 350 350 350 347 341 339 339 337 337 336 336 338 337 339 342 344 344 341 343 341 341 352 57 171 251 242 244 239 230 222 216 212 212 210 214 218 218 219 222 223
323 328 332 337 344 350 353 354 350 347 343 340 337 337 336 334 333 332 333 333 333 334 336 335 332 330 316 300 297 303 297 285 262 244 235 231 230 228 222 219 218 216 213 217 219 221 223
320 325 332 335 342 346 350 350 346 345 340 335 335 337 332 331 332 329 328 329 327 327 329 328 325 322 316 309 295 274 272 276 271 262 254 250 244 237 231 226 225 223 221 221 221 223 223
321 326 331 334 340 344 348 349 346 344 339 336 334 334 330 327 327 325 324 323 323 321 320 320 315 311 307 299 295 290 284 278 270 257 251 251 249 240 233 228 227 225 224 226 226 226 226
321 325 328 335 341 342 348 347 344 344 338 333 334 330 328 326 323 322 320 318 318 315 312 312 308 302 297 292 286 280 280 280 279 269 256 250 246 245 243 231 228 229 228 227 229 229 228
319 324 329 336 338 341 345 344 344 342 336 333 333 330 325 323 319 319 316 312 312 309 310 308 305 300 295 285 283 281 276 277 271 269 262 257 253 247 243 237 235 227 225 226 224 224 229
318 322 327 333 336 341 339 341 344 341 335 333 330 330 325 321 317 315 311 309 306 305 303 300 299 297 294 290 281 277 278 276 271 267 262 257 255 253 245 239 235 232 225 222 225 226 223
316 320 324 328 334 336 339 344 342 338 336 333 328 328 323 322 317 313 307 304 301 299 298 295 290 288 286 286 278 277 275 271 269 264 265 262 259 257 252 240 235 238 231 228 226 229 231
315 318 322 325 331 335 337 340 340 335 335 334 326 326 322 321 318 313 305 299 297 295 293 296 289 288 283 279 275 275 274 271 271 261 255 254 256 259 251 250 242 238 235 233 232 232 232
313 317 320 325 327 331 335 339 341 337 335 334 325 324 324 321 315 309 304 297 293 289 288 289 287 285 283 284 281 276 271 272 271 266 262 251 248 250 247 247 246 242 239 236 238 237 236
Height
10732 10718 10703 10682 10665 10649 10635 10620 10599 10580 10561 10541 10520 10500 10478 10456 10435 10416 10397 10381 10371 10363 10356 10355 10359 10367 10379 10394 10401 10421 10435 10454 10471 10485 10502 10519 10538 10558 10578 10594 10608 10630 10644 10654 10662 10686 10706
10728 10714 10696 10675 10656 10638 10625 10609 10589 10571 10553 10532 10510 10488 10465 10443 10422 10401 10381 10366 10355 10348 10342 10340 10343 10352 10361 10373 10385 10407 10421 10437 10458 10472 10487 10504 10522 10539 10555 10573 10595 10614 10621 10637 10650 10681 10685
10722 10707 10688 10671 10648 10629 10614 10599 10576 10559 10542 10522 10501 10479 10455 10432 10410 10389 10370 10355 10344 10334 10329 10328 10332 10339 10349 10358 10377 10397 10408 10422 10441 10455 10471 10487 10503 10521 10541 10558 10577 10594 10607 10625 10648 10667 10665
10718 10702 10683 10663 10641 10620 10604 10589 10567 10548 10532 10515 10494 10472 10449 10425 10402 10381 10360 10346 10334 10326 10320 10318 10322 10328 10335 10351 10362 10379 10392 10410 10428 10440 10457 10472 10488 10505 10524 10546 10565 10581 10594 10614 10638 10651 10655
10713 10698 10677 10654 10636 10614 10596 10582 10561 10540 10523 10505 10488 10469 10447 10423 10401 10380 10359 10343 10330 10320 10314 10312 10315 10322 10333 10342 10355 10371 10386 10403 10418 10431 10446 10462 10480 10496 10515 10537 10551 10567 10583 10608 10620 10638 10641
10707 10690 10670 10650 10632 10610 10590 10575 10557 10533 10516 10499 10483 10464 10445 10423 10401 10380 10359 10343 10330 10318 10312 10309 10312 10319 10327 10335 10350 10362 10377 10394 10410 10422 10438 10454 10469 10485 10505 10522 10548 10570 10577 10596 10609 10622 10633
10701 10686 10668 10648 10627 10608 10588 10570 10552 10530 10511 10494 10478 10461 10443 10423 10402 10382 10363 10346 10333 10322 10315 10313 10315 10320 10329 10340 10352 10360 10373 10388 10404 10414 10434 10448 10466 10488 10503 10520 10529 10548 10560 10578 10588 10609 10621
10696 10683 10666 10643 10623 10606 10587 10569 10551 10529 10508 10493 10475 10460 10441 10423 10405 10387 10368 10354 10341 10329 10323 10321 10323 10326 10331 10341 10352 10359 10374 10389 10402 10414 10429 10449 10464 10473 10489 10504 10517 10535 10555 10570 10578 10605 10612
10693 10681 10664 10642 10621 10604 10585 10566 10549 10527 10507 10492 10474 10460 10443 10429 10412 10392 10373 10360 10347 10337 10331 10330 10331 10334 10338 10344 10354 10360 10379 10396 10406 10416 10427 10441 10453 10469 10484 10499 10513 10533 10551 10558 10576 10597 10598
10691 10679 10662 10642 10618 10602 10584 10565 10550 10529 10508 10489 10476 10461 10448 10432 10418 10402 10383 10369 10356 10347 10342 10340 10339 10340 10344 10351 10362 10374 10389 10400 10407 10416 10425 10439 10451 10468 10482 10496 10506 10525 10539 10549 10571 10583 10583
10688 10674 10659 10641 10619 10599 10583 10566 10550 10531 10511 10492 10477 10464 10450 10437 10426 10414 10399 10384 10370 10359 10356 10351 10350 10350 10352 10356 10367 10377 10386 10393 10402 10413 10425 10438 10449 10461 10476 10487 10497 10514 10531 10542 10559 10564 10580
10687 10671 10655 10638 10619 10600 10584 10566 10550 10533 10514 10497 10479 10467 10455 10443 10430 10419 10407 10394 10381 10370 10365 10361 10360 10361 10363 10367 10372 10378 10387 10395 10404 10413 10421 10431 10442 10455 10468 10477 10490 10508 10519 10527 10538 10553 10569
10683 10669 10653 10634 10617 10601 10584 10566 10550 10535 10518 10502 10485 10470 10460 10447 10436 10424 10414 10403 10392 10384 10377 10372 10370 10371 10374 10377 10380 10385 10391 10396 10404 10412 10420 10429 10439 10448 10459 10470 10482 10496 10505 10513 10526 10539 10565
10680 10666 10651 10633 10618 10600 10582 10569 10552 10536 10521 10506 10493 10476 10464 10454 10445 10432 10420 10410 10403 10396 10390 10384 10380 10379 10381 10384 10389 10393 10397 10402 10408 10414 10422 10429 10439 10447 10457 10465 10472 10481 10490 10500 10516 10533 10551
10677 10663 10651 10636 10616 10600 10582 10566 10550 10538 10521 10508 10496 10483 10467 10458 10448 10442 10431 10421 10413 10408 10400 10395 10390 10388 10389 10391 10393 10397 10400 10405 10411 10418 10424 10431 10437 10444 10451 10458 10467 10476 10486 10495 10507 10519 10536
10673 10661 10649 10637 10619 10601 10580 10564 10550 10537 10523 10509 10497 10485 10474 10460 10452 10444 10438 10428 10416 10413 10408 10402 10399 10397 10396 10397 10398 10400 10402 10406 10410 10416 10421 10427 10432 10438 10443 10450 10459 10468 10475 10487 10497 10509 10519
10666 10656 10646 10634 10617 10598 10580 10564 10546 10537 10524 10510 10496 10488 10476 10465 10455 10447 10440 10433 10427 10419 10414 10411 10406 10402 10400 10400 10402 10404 10405 10407 10410 10414 10418 10422 10426 10431 10436 10442 10449 10458 10467 10476 10484 10494 10503
10660 10650 10640 10629 10616 10597 10583 10569 10550 10533 10521 10510 10497 10487 10478 10468 10458 10448 10442 10437 10429 10422 10416 10412 10411 10409 10406 10404 10405 10406 10407 10409 10410 10412 10415 10419 10422 10426 10431 10436 10442 10449 10456 10464 10474 10483 10492
10652 10643 10634 10624 10612 10594 10580 10566 10551 10532 10517 10509 10496 10484 10477 10466 10458 10449 10442 10438 10434 10429 10422 10417 10412 10409 10407 10406 10405 10404 10406 10408 10410 10412 10414 10417 10420 10423 10428 10431 10435 10441 10447 10454 10463 10470 10480
10643 10636 10626 10619 10603 10590 10574 10563 10548 10531 10515 10504 10491 10480 10472 10466 10456 10449 10440 10435 10430 10427 10422 10419 10416 10411 10409 10408 10407 10407 10407 10407 10408 10410 10412 10414 10417 10420 10423 10425 10430 10435 10441 10448 10455 10463 10469
10634 10627 10618 10610 10597 10586 10570 10558 10545 10527 10510 10500 10488 10476 10466 10461 10453 10446 10438 10432 10428 10424 10421 10418 10416 10414 10411 10409 10406 10405 10406 10407 10407 10408 10409 10410 10413 10416 10419 10421 10424 10428 10433 10439 10446 10450 10461
10624 10618 10609 10598 10588 10578 10564 10553 10541 10523 10505 10493 10482 10470 10458 10454 10448 10440 10435 10429 10425 10421 10418 10415 10413 10411 10410 10408 10408 10407 10405 10404 10405 10405 10406 10408 10409 10412 10415 10418 10420 10423 10427 10431 10436 10442 10448
10612 10604 10598 10589 10579 10569 10558 10546 10531 10517 10501 10487 10473 10463 10452 10445 10441 10435 10430 10425 10421 10418 10414 10411 10409 10407 10406 10405 10404 10404 10404 10403 10403 10403 10403 10404 10405 10407 10409 10412 10415 10417 10420 10424 10429 10434 10441
10599 10592 10586 10578 10567 10558 10548 10538 10524 10505 10491 10476 10466 10455 10446 10438 10432 10428 10424 10418 10414 10412 10411 10409 10406 10404 10403 10401 10401 10401 10400 10400 10399 10400 10400 10401 10402 10403 10404 10407 10408 10410 10415 10419 10423 10429 10433
10586 10580 10574 10568 10560 10550 10537 10525 10515 10499 10483 10469 10456 10446 10438 10430 10423 10418 10416 10413 10409 10405 10402 10401 10400 10398 10397 10396 10395 10395 10395 10395 10396 10396 10396 10397 10397 10398 10399 10402 10403 10407 10409 10413 10417 10421 10426
10573 10567 10561 10556 10547 10539 10531 10520 10505 10491 10473 10458 10447 10438 10429 10421 10414 10408 10406 10404 10402 10399 10398 10395 10393 10392 10391 10390 10390 10389 10389 10389 10390 10391 10392 10392 10392 10393 10394 10396 10398 10399 10403 10406 10410 10414 10418
10559 10552 10548 10542 10535 10529 10521 10509 10495 10480 10464 10448 10437 10428 10419 10411 10405 10398 10395 10393 10392 10391 10390 10390 10389 10387 10385 10384 10383 10384 10383 10383 10383 10386 10387 10388 10388 10389 10389 10389 10392 10394 10398 10402 10404 10406 10411
10544 10539 10533 10528 10522 10516 10509 10498 10485 10468 10451 10438 10428 10417 10410 10402 10396 10389 10385 10382 10381 10381 10379 10381 10380 10380 10379 10379 10378 10378 10377 10377 10377 10379 10380 10382 10384 10385 10385 10385 10387 10388 10392 10395 10396 10400 10403
10529 10525 10520 10514 10507 10503 10493 10487 10475 10456 10439 10429 10418 10406 10398 10392 10386 10379 10375 10371 10370 10370 10370 10371 10371 10372 10370 10370 10371 10371 10371 10371 10372 10372 10374 10375 10377 10378 10380 10380 10382 10383 10385 10386 10390 10392 10395